DW0805 Ramloese DK current weather conditions

sailwx.info

Wind from 246 at 5 knots gusting 10

Air temperature 19.4° C
Dewpoint 17.2° C

Last reported at 2018-Sep-19 08:05 UTC.
Time now 2018-Sep-19 08:42 UTC

Location: N 56°01' E 012°05'.
View on Google Maps.

See reports from other nearby stations

  
Tides and Currents Weather Stations Pressure Air Temp Water Temp Dewpoint Dewpoint Depression Visibility Wind Speed Wind Dir Waves Ship Positions
date/time (UTC)wind fromknots sea level pressurealtimeterstation pressurevisibilityair tempwater tempwave heightnotes
2018-Sep-19 08:05 246 5 gusting 10 19.4
2018-Sep-19 07:55 248 4 gusting 8 18.9
2018-Sep-19 07:45 235 7 gusting 10 18.3
2018-Sep-19 07:35 224 5 gusting 7 18.3
2018-Sep-19 07:25 235 5 gusting 12 17.8
2018-Sep-19 07:15 237 7 gusting 10 17.2
2018-Sep-19 06:55 234 5 gusting 8 17.2
2018-Sep-19 06:35 240 4 gusting 7 16.1
2018-Sep-19 06:25 293 5 gusting 7 16.1
2018-Sep-19 06:15 242 2 gusting 6 16.1
2018-Sep-19 06:05 243 4 gusting 7 16.1
2018-Sep-19 05:55 290 5 gusting 7 16.1
2018-Sep-19 05:45 243 5 gusting 7 16.1
2018-Sep-19 05:15 244 3 gusting 6 15.6
2018-Sep-19 04:55 249 2 gusting 6 15.6
2018-Sep-19 04:35 257 2 gusting 6 15.6
2018-Sep-19 04:25 233 2 gusting 7 15.6
2018-Sep-19 04:15 238 4 gusting 7 15.6
2018-Sep-19 04:05 291 2 gusting 7 15.6
2018-Sep-19 03:55 244 3 gusting 7 15.6
2018-Sep-19 03:45 244 2 gusting 7 15.6
2018-Sep-19 03:25 229 1 gusting 7 15.6
2018-Sep-19 03:15 223 3 gusting 7 15.6
2018-Sep-19 03:05 234 3 gusting 6 15.6
2018-Sep-19 02:45 242 1 gusting 6 15.6
2018-Sep-19 02:35 242 1 gusting 7 15.6
2018-Sep-19 02:25 243 1 gusting 6 15.6
2018-Sep-19 02:15 243 1 gusting 5 15.6
2018-Sep-19 01:55 286 1 gusting 6 16.1
2018-Sep-19 01:35 253 0 gusting 7 16.1
2018-Sep-19 01:25 240 2 gusting 7 16.1
2018-Sep-19 01:15 243 1 gusting 6 16.1
2018-Sep-19 00:45 246 2 gusting 8 16.7
2018-Sep-19 00:35 246 2 gusting 7 16.7
2018-Sep-19 00:25 243 2 gusting 6 16.1
2018-Sep-18 23:55 241 3 gusting 7 16.1
2018-Sep-18 23:45 241 2 gusting 7 16.1
2018-Sep-18 23:15 248 2 gusting 6 16.1
2018-Sep-18 23:05 250 1 gusting 6 16.1
2018-Sep-18 22:55 250 2 gusting 6 16.1
2018-Sep-18 22:45 250 4 gusting 7 16.7
2018-Sep-18 22:35 238 2 gusting 7 16.7
2018-Sep-18 22:15 245 1 gusting 6 16.7
2018-Sep-18 22:05 246 2 gusting 5 16.7
2018-Sep-18 21:55 250 0 gusting 6 16.7
2018-Sep-18 21:45 252 1 gusting 6 16.7
2018-Sep-18 21:35 254 1 gusting 7 17.2
2018-Sep-18 21:15 252 3 gusting 7 17.2
2018-Sep-18 20:55 250 6 gusting 8 17.2
2018-Sep-18 20:45 253 4 gusting 8 17.8
2018-Sep-18 20:35 257 6 gusting 10 17.8
2018-Sep-18 20:25 257 5 gusting 8 17.8
2018-Sep-18 20:15 265 4 gusting 10 17.8
2018-Sep-18 20:05 262 5 gusting 11 18.3
2018-Sep-18 19:55 268 5 gusting 12 18.3
2018-Sep-18 19:45 271 6 gusting 13 18.3
2018-Sep-18 19:25 276 6 gusting 13 18.9
2018-Sep-18 19:15 275 8 gusting 13 19.4
2018-Sep-18 19:05 282 8 gusting 13 19.4
2018-Sep-18 18:35 253 5 gusting 7 18.3
2018-Sep-18 18:25 186 0 gusting 6 18.9
2018-Sep-18 18:15 176 18.9
2018-Sep-18 17:55 173 0 gusting 5 19.4
2018-Sep-18 17:45 175 0 gusting 6 19.4
2018-Sep-18 17:37 186 0 gusting 4 19.4
2018-Sep-18 17:25 182 0 gusting 6 20.0
2018-Sep-18 17:15 182 0 gusting 4 20.0
2018-Sep-18 17:05 184 0 gusting 4 20.6
2018-Sep-18 16:55 183 1 gusting 5 20.6
2018-Sep-18 16:45 167 0 gusting 5 21.1
2018-Sep-18 16:35 175 1 gusting 5 21.7
2018-Sep-18 15:45 206 5 gusting 11 24.4
2018-Sep-18 15:35 211 7 gusting 12 24.4
2018-Sep-18 15:25 198 7 gusting 13 24.4
2018-Sep-18 15:15 196 6 gusting 12 25.0
2018-Sep-18 15:05 207 6 gusting 13 25.0
2018-Sep-18 14:55 202 8 gusting 13 25.0
2018-Sep-18 14:45 203 7 gusting 18 25.6
2018-Sep-18 14:35 193 7 gusting 13 25.6
2018-Sep-18 14:25 203 8 gusting 14 25.0
2018-Sep-18 14:15 212 8 gusting 13 25.6
2018-Sep-18 14:05 199 9 gusting 13 25.6
2018-Sep-18 13:55 204 9 gusting 14 25.6
2018-Sep-18 13:35 206 10 gusting 13 25.0
2018-Sep-18 13:05 209 11 gusting 14 25.6
2018-Sep-18 12:55 217 6 gusting 12 25.6
2018-Sep-18 12:25 171 5 gusting 11 23.9
2018-Sep-18 12:05 176 6 gusting 7 23.3
2018-Sep-18 11:55 168 6 gusting 8 24.4
2018-Sep-18 11:45 206 6 gusting 12 25.0
2018-Sep-18 11:35 184 5 gusting 11 25.0
2018-Sep-18 11:15 201 4 gusting 13 24.4
2018-Sep-18 10:55 194 6 gusting 8 23.3
2018-Sep-18 10:45 196 6 gusting 8 23.3
2018-Sep-18 10:35 181 4 gusting 7 22.8
2018-Sep-18 10:25 184 5 gusting 8 22.2
2018-Sep-18 10:05 164 1 gusting 7 22.2
2018-Sep-18 09:55 175 3 gusting 6 21.7
2018-Sep-18 09:45 175 5 gusting 7 21.7
2018-Sep-18 09:35 177 5 gusting 7 21.7
2018-Sep-18 09:25 176 5 gusting 7 21.1
2018-Sep-18 09:15 174 5 gusting 7 21.7
2018-Sep-18 08:55 183 3 gusting 6 21.7
2018-Sep-18 08:45 183 3 gusting 6 21.7
2018-Sep-18 08:35 189 2 gusting 5 21.7
2018-Sep-18 08:25 204 2 gusting 5 21.1
2018-Sep-18 08:15 205 3 gusting 5 21.1
2018-Sep-18 08:05 265 2 gusting 5 20.6
2018-Sep-18 07:35 206 0 gusting 2 18.9
2018-Sep-18 07:25 209 1 gusting 4 17.8
2018-Sep-18 07:05 271 2 gusting 4 17.8
2018-Sep-18 06:55 287 1 gusting 2 17.8
2018-Sep-18 06:45 212 0 gusting 2 17.2
2018-Sep-18 06:35 262 0 gusting 2 16.1
2018-Sep-18 06:25 210 0 gusting 2 15.6
2018-Sep-18 06:15 230 15.6
2018-Sep-18 06:05 219 15.0
2018-Sep-18 05:25 212 13.3
2018-Sep-18 05:15 261 13.3
2018-Sep-18 04:55 209 13.3
2018-Sep-18 04:45 210 0 gusting 2 12.8
2018-Sep-18 04:35 210 0 gusting 1 12.8
2018-Sep-18 04:25 210 12.8
2018-Sep-18 04:15 209 12.8
2018-Sep-18 04:05 210 12.8
2018-Sep-18 03:55 210 0 gusting 2 12.8
2018-Sep-18 03:35 210 1 gusting 2 12.8
2018-Sep-18 03:25 210 1 gusting 2 12.8
2018-Sep-18 03:05 210 0 gusting 1 12.8
2018-Sep-18 02:55 210 13.3
2018-Sep-18 02:45 210 0 gusting 1 13.3
2018-Sep-18 02:25 210 13.9
2018-Sep-18 02:05 210 1 gusting 2 13.9
2018-Sep-18 01:55 210 1 gusting 2 13.9
2018-Sep-18 01:45 210 1 gusting 2 13.9
2018-Sep-18 01:25 210 0 gusting 2 13.9
2018-Sep-18 01:15 209 0 gusting 2 13.9
2018-Sep-18 01:05 210 13.9
2018-Sep-18 00:55 210 14.4
2018-Sep-18 00:45 209 14.4
2018-Sep-18 00:35 210 14.4
2018-Sep-18 00:25 210 1 gusting 4 14.4
2018-Sep-18 00:15 211 1 gusting 5 14.4
2018-Sep-17 23:55 214 1 gusting 5 14.4
2018-Sep-17 23:45 214 1 gusting 2 14.4
2018-Sep-17 23:35 213 1 gusting 2 14.4
2018-Sep-17 23:05 214 0 gusting 2 15.0
2018-Sep-17 22:55 213 2 gusting 4 15.0
2018-Sep-17 22:45 214 2 gusting 5 15.0
2018-Sep-17 22:15 215 6 gusting 8 15.6
2018-Sep-17 21:45 228 0 gusting 2 15.6
2018-Sep-17 21:35 228 1 gusting 6 15.6
2018-Sep-17 21:05 229 1 gusting 2 15.6
2018-Sep-17 20:55 229 1 gusting 2 15.6
2018-Sep-17 20:45 229 0 gusting 2 15.6
2018-Sep-17 20:35 229 0 gusting 4 15.6
2018-Sep-17 20:25 229 1 gusting 2 15.6
2018-Sep-17 20:15 229 1 gusting 2 15.6
2018-Sep-17 20:05 229 0 gusting 1 15.6
2018-Sep-17 19:55 229 0 gusting 2 15.6
2018-Sep-17 19:45 229 2 gusting 4 15.6
2018-Sep-17 19:25 229 2 gusting 4 15.6
2018-Sep-17 19:15 229 2 gusting 2 15.6
2018-Sep-17 19:05 229 0 gusting 1 16.1
2018-Sep-17 18:55 229 1 gusting 4 16.1
2018-Sep-17 18:45 229 2 gusting 4 16.1
2018-Sep-17 18:35 229 1 gusting 2 16.1
2018-Sep-17 18:25 229 2 gusting 2 16.1
2018-Sep-17 17:55 229 0 gusting 2 16.7
2018-Sep-17 17:45 229 0 gusting 2 16.7
2018-Sep-17 17:35 229 0 gusting 2 16.7
2018-Sep-17 17:27 241 1 gusting 2 16.7
2018-Sep-17 16:45 242 17.8
2018-Sep-17 16:35 238 17.8
2018-Sep-17 16:25 245 17.8
2018-Sep-17 16:05 241 17.8
2018-Sep-17 15:55 237 17.8
2018-Sep-17 15:25 255 1 gusting 6 17.8
2018-Sep-17 15:15 301 3 gusting 7 18.3
2018-Sep-17 14:55 219 1 gusting 2 18.3
2018-Sep-17 14:35 222 1 gusting 2 18.3
2018-Sep-17 14:15 273 1 gusting 2 18.9
2018-Sep-17 13:35 287 4 gusting 7 19.4
2018-Sep-17 13:25 283 2 gusting 6 19.4
2018-Sep-17 13:16 311 0 gusting 4 20.0
2018-Sep-17 12:45 316 0 gusting 2 18.9
2018-Sep-17 12:35 314 1 gusting 4 18.3
2018-Sep-17 12:25 328 2 gusting 6 18.3
2018-Sep-17 12:15 331 1 gusting 5 18.3
2018-Sep-17 12:05 314 1 gusting 6 18.3
2018-Sep-17 11:55 313 1 gusting 7 18.3
2018-Sep-17 11:45 323 1 gusting 6 18.9
2018-Sep-17 11:37 306 2 gusting 7 18.3
2018-Sep-17 11:15 317 2 gusting 6 18.9
2018-Sep-17 11:05 305 1 gusting 6 18.9
2018-Sep-17 10:45 301 2 gusting 7 18.3
2018-Sep-17 10:35 298 2 gusting 6 18.3
2018-Sep-17 10:25 304 3 gusting 7 18.3
2018-Sep-17 10:05 305 2 gusting 7 18.3
2018-Sep-17 09:45 281 3 gusting 7 18.3
2018-Sep-17 09:35 276 4 gusting 8 17.8
2018-Sep-17 09:25 314 2 gusting 11 17.8
2018-Sep-17 09:15 325 2 gusting 8 17.8
2018-Sep-17 09:05 284 4 gusting 11 17.8
2018-Sep-17 08:55 304 6 gusting 11 17.8
2018-Sep-17 08:45 287 6 gusting 12 17.8
2018-Sep-17 08:35 321 4 gusting 10 18.3
2018-Sep-17 08:15 335 1 gusting 7 17.8